User: anonymous   Login
Location: Bangkok
(13.7500°N, 100.5170°E)
Time: 01:27:44
(UTC+07:00)
Language:

Cosmos 1802 Rocket - Orbit

View from above orbital plane
View from above orbital plane
View from above satellite
View from above satellite

Ground track
Ground track

The orbit data is extracted from the following two-line orbital elements,

1 17160U 86093B   17328.06100249 -.00000008 +00000-0 -24289-4 0  9993
2 17160 082.9250 305.6979 0040244 064.1338 002.5580 13.74599436554567
Epoch (UTC): 24 November 2017 01:27:50
Eccentricity: 0.0040244
inclination: 82.9250°
perigee height: 953 km
apogee height: 1013 km
right ascension of ascending node: 305.6979°
argument of perigee: 64.1338°
revolutions per day: 13.74599436
mean anomaly at epoch: 2.5580°
orbit number at epoch: 55456

The dashed part of the orbit path shows where the satellite is in the earth's shadow,  

DLR